This demonstration page uses our WeatherBlox Daily Observations layout. Learn more.

Left ArrowRight Arrow

41.55636, -103.73856

Hourly Observations for October 1, 2015

Temp ( °F °C ) Dew Point ( °F °C ) Humidity (%) Winds ( mph kmh ) Pressure ( in mb ) Visibility ( mi km ) Precip ( " mm )
12:53 am 00:53 Cloudy with Mist and Fog 57 13.9 56 13.3 96 96 ESE 10 17 30.05 1018 5 8.0467 0 0
1:53 am 01:53 Cloudy with Mist and Fog 58 14.4 56 13.3 93 93 ESE 8 13 30.04 1017 6 9.65604 0 0
2:53 am 02:53 Cloudy 58 14.4 56 13.3 93 93 ESE 8 13 30.03 1017 7 11.26538 0 0
3:53 am 03:53 Cloudy with Mist and Fog 58 14.4 56 13.3 93 93 ESE 12 19 30.02 1017 6 9.65604 0 0
4:53 am 04:53 Cloudy 58 14.4 56 13.3 93 93 ESE 10 17 30.01 1016 7 11.26538 0 0
5:53 am 05:53 Cloudy 58 14.4 55 12.8 90 90 SE 9 15 30.02 1017 7 11.26538 0 0
6:53 am 06:53 Cloudy 58 14.4 55 12.8 90 90 ESE 9 15 30.04 1017 7 11.26538 0 0
7:33 am 07:33 Cloudy with Mist and Fog 58 14.4 55 12.8 90 90 SE 10 17 30.03 1017 6 9.65604 0 0
7:53 am 07:53 Mostly Cloudy 59 15 55 12.8 87 87 ESE 8 13 30.04 1017 7 11.26538 0 0
8:16 am 08:16 Partly Cloudy 59 15 56 13.3 90 90 ESE 13 20 30 1016 7 11.26538 0 0
8:53 am 08:53 Mostly Sunny 61 16.1 56 13.3 84 84 SE 12 19 30.05 1018 8 12.87472 0 0
9:53 am 09:53 Sunny 63 17.2 55 12.8 76 76 ESE 7 11 30.06 1018 10 16.0934 0 0
10:53 am 10:53 Partly Cloudy 67 19.4 56 13.3 68 68 ESE 14 22 30.04 1017 8 12.87472 0 0
11:53 am 11:53 Mostly Cloudy 69 20.6 57 13.9 66 66 ESE 18 30 30.01 1016 10 16.0934 0 0
12:53 pm 12:53 Mostly Cloudy 73 22.8 58 14.4 59 59 ESE 15 24 29.99 1016 10 16.0934 0 0
1:53 pm 13:53 Sunny 72 22.2 57 13.9 59 59 ESE 18 30 30 1016 10 16.0934 0 0
2:53 pm 14:53 Sunny 69 20.6 56 13.3 63 63 E 16 26 30 1016 10 16.0934 0 0
3:53 pm 15:53 Mostly Sunny 68 20 57 13.9 68 68 E 18 30 29.99 1016 10 16.0934 0 0
4:53 pm 16:53 Sunny 69 20.6 57 13.9 66 66 ESE 21 33 29.99 1016 10 16.0934 0 0
5:53 pm 17:53 Sunny 68 20 56 13.3 65 65 SE 17 28 30.01 1016 10 16.0934 0 0
6:53 pm 18:53 Clear 66 18.9 55 12.8 68 68 ESE 14 22 30.04 1017 10 16.0934 0 0
7:53 pm 19:53 Clear 64 17.8 55 12.8 73 73 SE 14 22 30.04 1017 10 16.0934 0 0
8:53 pm 20:53 Clear 62 16.7 54 12.2 75 75 ESE 15 24 30.05 1018 10 16.0934 0 0
9:27 pm 21:27 Mostly Cloudy 62 16.7 54 12.2 75 75 ESE 15 24 29.97 1015 10 16.0934 0 0
9:53 pm 21:53 Cloudy 63 17.2 54 12.2 73 73 SE 14 22 30.06 1018 10 16.0934 0 0
10:53 pm 22:53 Cloudy 61 16.1 54 12.2 78 78 ESE 17 28 30.05 1018 10 16.0934 0 0
11:53 pm 23:53 Cloudy 62 16.7 54 12.2 75 75 ESE 17 28 30.04 1017 10 16.0934 0 0

Powered by AerisWeather